Regional Weather Roundup
Issued by NWS Little Rock, AR

Home | Current Version | Previous Version | Text Only | Print | Product List | Glossary Off
Versions: 1 2 3 4 5 6 7 8 9 10 11 12 13 14 15 16 17 18 19 20 21 22 23 24 25 26 27 28 29 30 31 32 33 34 35 36 37 38 39 40 41 42 43 44 45 46 47 48 49 50

000
ASUS44 KLZK 171905
RWRLZK

WEATHER ROUNDUP FOR ARKANSAS
NATIONAL WEATHER SERVICE LITTLE ROCK AR
200 PM CDT FRI APR 17 2015

NOTE: "FAIR" INDICATES FEW OR NO CLOUDS BELOW 12,000 FEET WITH NO
SIGNIFICANT WEATHER AND/OR OBSTRUCTIONS TO VISIBILITY.

ARZ001-003-010-029-172000-
NORTHWEST ARKANSAS

CITY           SKY/WX    TMP DP  RH WIND       PRES   REMARKS
FAYETTEVILLE   MOSUNNY   75  60  59 VRB5      30.01F
FORT SMITH     MOSUNNY   76  59  55 W6        29.99F
HARRISON       PTSUNNY   71  62  73 NE9       30.05F
BENTONVILLE    MOSUNNY   73  59  60 SE7       30.03F
ROGERS         MOSUNNY   72  60  66 VRB6      30.03F
SILOAM SPGS    PTSUNNY   73  59  60 NE3       30.03F
HIGHFILL       PTSUNNY   72  60  66 NE5       30.01F
SPRINGDALE     MOSUNNY   75  64  69 CALM      30.04F
$$

ARZ004-005-016-172000-
NORTH CENTRAL ARKANSAS

CITY           SKY/WX    TMP DP  RH WIND       PRES   REMARKS
BATESVILLE     CLOUDY    72  64  78 SE5       30.04F
FLIPPIN        MOSUNNY   75 N/A N/A SE3       30.01F
MTN HOME       CLOUDY    76  59  55 NE5       30.02F
$$

ARZ040-041-172000-
WEST CENTRAL ARKANSAS

CITY           SKY/WX    TMP DP  RH WIND       PRES   REMARKS
MENA           PTSUNNY   81  61  50 E6        30.00F
MOUNT IDA      PTSUNNY   75  64  68 E3        29.99F
$$

ARZ009-017-025-026-028-172000-
NORTHEAST ARKANSAS

CITY           SKY/WX    TMP DP  RH WIND       PRES   REMARKS
CORNING          N/A     75  63  64 SE5       30.05F
JONESBORO      PTSUNNY   69  65  86 S3        30.04S
NEWPORT        CLOUDY    72  67  84 S8        30.05F
WALNUT RIDGE   PTSUNNY   72  63  73 CALM      30.04F
BLYTHEVILLE    CLOUDY    69  65  86 SE6       30.06F
NW BLYTHEVILLE CLOUDY    68  63  83 E6        30.05F
$$

ARZ022-023-033-042-044-172000-
CENTRAL ARKANSAS

CITY           SKY/WX    TMP DP  RH WIND       PRES   REMARKS
LITTLE ROCK    PTSUNNY   80  61  52 E12G17    30.01F
N LITTLE ROCK  PTSUNNY   76  67  76 E9        30.01F
JACKSONVILLE   LGT RAIN  76  65  69 SE5       30.01F
SEARCY         RAIN      66  65  96 S6        30.05F FOG
HOT SPRINGS    MOSUNNY   78  63  59 VRB6      29.99F
RUSSELLVILLE   PTSUNNY   76  65  68 VRB5      30.00F
CLINTON        FAIR      70  68  94 CALM      30.04F FOG
$$

ARZ036-172000-
EAST ARKANSAS

CITY           SKY/WX    TMP DP  RH WIND       PRES   REMARKS
WEST MEMPHIS   CLOUDY    70  65  84 CALM      30.03S
$$

ARZ050-053-066-070-073-172000-
SOUTHWEST ARKANSAS

CITY           SKY/WX    TMP DP  RH WIND       PRES   REMARKS
ARKADELPHIA    FAIR      80  69  69 VRB3      29.98F
CAMDEN         SUNNY     84  63  48 N6        29.97F HX  85
TEXARKANA      PTSUNNY   77  64  64 N3        29.99F
EL DORADO      PTSUNNY   78  62  57 CALM      29.98F
DE QUEEN       MOSUNNY   80  63  55 VRB3      29.96F
$$

ARZ056-057-069-172000-
SOUTHEAST ARKANSAS

CITY           SKY/WX    TMP DP  RH WIND       PRES   REMARKS
PINE BLUFF     PTSUNNY   74  65  73 E8        30.02F
STUTTGART      CLOUDY    75  63  64 E3        30.03F
MONTICELLO     CLOUDY    75  65  70 E12       29.99F

$$




USA.gov is the U.S. government's official web portal to all federal, state and local government web resources and services.